Weather History for Krabi, Thailand

Change the Weather History Date:

Wednesday, March 5, 2014

  Actual Average (VTSP) Record (VTSP)
Temperature  
Mean Temperature 84 °F -  
Max Temperature 100 °F 93 °F 100 °F (1998)
Min Temperature 69 °F 76 °F 73 °F (2008)
Cooling Degree Days 20    
Growing Degree Days 34 (Base 50)    
Moisture  
Dew Point 68 °F    
Average Humidity 67    
Maximum Humidity 100    
Minimum Humidity 27    
Precipitation  
Precipitation 0.00 in - - ()
Sea Level Pressure  
Sea Level Pressure 29.89 in    
Wind  
Wind Speed 4 mph ()    
Max Wind Speed 12 mph    
Max Gust Speed -    
Visibility 4.5 miles    
Events      
Averages and records for this station are not official NWS values.
T = Trace of Precipitation, MM = Missing Value Source: Averaged Metar Reports

Daily Weather History Graph

Daily Weather History Graph

Search for Another Location

Airport:

Trip Planner

Search our weather history database for the weather conditions in past years. The results will help you decide how hot, cold, wet, or windy it might be!

Date:

Astronomy

Mar. 05, 2014 Rise Set
Actual Time 6:35 AM ICT 6:35 PM ICT
Civil Twilight 6:14 AM ICT 6:56 PM ICT
Nautical Twilight 5:50 AM ICT 7:20 PM ICT
Astronomical Twilight 5:26 AM ICT 7:45 PM ICT
Moon 9:33 AM ICT (3/5) 10:14 PM ICT (3/5)
Length of Visible Light 12h 41m
Length of Day
11h 59m
Waxing Crescent, 18% of the Moon is Illuminated
Mar 5
Waxing Crescent
Mar 8
First Quarter
Mar 17
Full
Mar 24
Last Quarter
Mar 31
New

Hourly Weather History & Observations

Time (ICT) Temp. Heat Index Dew Point Humidity Pressure Visibility Wind Dir Wind Speed Gust Speed Precip Events Conditions
2:00 AM 71.6 °F - 69.8 °F 94% 29.92 in 5.0 mi Calm Calm - N/A   Unknown
3:00 AM 71.6 °F - 68.0 °F 88% 29.92 in 3.7 mi North 3.5 mph - N/A   Unknown
4:00 AM 71.6 °F - 69.8 °F 94% 29.89 in 3.7 mi ENE 4.6 mph - N/A   Unknown
5:00 AM 69.8 °F - 68.0 °F 94% 29.89 in 3.1 mi Variable 4.6 mph - N/A   Mist
6:00 AM 69.8 °F - 69.8 °F 100% 29.92 in 2.8 mi Variable 2.3 mph - N/A   Unknown
7:00 AM 69.8 °F - 68.0 °F 94% 29.92 in 1.2 mi NNE 3.5 mph - N/A   Mist
8:00 AM 71.6 °F - 69.8 °F 94% 29.95 in 1.9 mi North 4.6 mph - N/A   Mist
9:00 AM 78.8 °F - 71.6 °F 78% 29.95 in 3.7 mi ENE 6.9 mph - N/A   Unknown
10:00 AM 86.0 °F 90.4 °F 69.8 °F 58% 29.95 in 5.0 mi ENE 5.8 mph - N/A   Unknown
11:00 AM 89.6 °F 93.4 °F 68.0 °F 49% 29.95 in - NNE 6.9 mph - N/A   Clear
12:00 PM 95.0 °F 98.5 °F 66.2 °F 39% 29.92 in 5.0 mi East 9.2 mph - N/A   Unknown
1:00 PM 98.6 °F 101.0 °F 64.4 °F 32% 29.89 in - East 6.9 mph - N/A   Clear
2:00 PM 100.4 °F 103.6 °F 64.4 °F 31% 29.83 in 6.2 mi SE 8.1 mph - N/A   Partly Cloudy
3:00 PM 98.6 °F 101.0 °F 64.4 °F 32% 29.80 in 6.2 mi ESE 11.5 mph - N/A   Partly Cloudy
4:00 PM 98.6 °F 100.0 °F 62.6 °F 30% 29.80 in 6.2 mi East 10.4 mph - N/A   Partly Cloudy
5:00 PM 96.8 °F 95.8 °F 57.2 °F 27% 29.80 in 6.2 mi ESE 9.2 mph - N/A   Partly Cloudy
6:00 PM 86.0 °F 91.8 °F 71.6 °F 62% 29.83 in 5.6 mi SSW 8.1 mph - N/A   Partly Cloudy
7:00 PM 84.2 °F 89.6 °F 71.6 °F 66% 29.86 in 5.0 mi SSW 4.6 mph - N/A   Partly Cloudy
8:00 PM 78.8 °F - 71.6 °F 78% 29.86 in 5.0 mi Variable 2.3 mph - N/A   Unknown
9:00 PM 77.0 °F - 71.6 °F 83% 29.89 in 5.0 mi Variable 2.3 mph - N/A   Unknown
11:00 PM 77.0 °F - 68.0 °F 74% 29.92 in 5.0 mi East 4.6 mph - N/A   Unknown